[[{"header":{"parameterUnit":"m.s-1","parameterCategory":1,"la1":30.2991,"la2":30.254,"lo1":-89.0895,"lo2":-89.0444,"dy":0.0017,"dx":0.0017,"nx":28,"ny":28,"refTime":"2025-01-29T09:00:00:Z","depth":0,"parameterNumber":2,"parameterNumberName":"U-component_of_WINDS"},"data":[0,0,0,0,0,0,0,0,0,0,0,0,0,0,0,0,0,0,0,0,0,0,0,0,0,0,0,0,0,0,0,0,0,0,0,0,0,0,0,0,0,0,0,0,0,0,0,0,0,0,0,0,0,0,0,0,0,0,-1.0599,-1.0599,0,-1.0537,-1.0537,-1.0536,-1.0484,-1.0484,-1.0483,-1.0483,-1.0419,-1.0418,-1.0417,0,0,0,0,0,0,0,0,0,0,0,0,0,-1.0674,-1.0673,-1.0599,-1.0598,-1.0598,-1.0537,-1.0536,-1.0536,-1.0484,-1.0484,-1.0483,-1.0482,-1.0419,-1.0418,-1.0417,0,0,0,0,0,0,0,0,0,0,0,0,0,-1.063,-1.0673,-1.0599,-1.0565,-1.0561,-1.0538,-1.0536,-1.0535,-1.0484,-1.0484,-1.0483,-1.0482,-1.042,-1.0418,-1.0416,-1.0422,0,0,-1.0411,-1.041,0,0,0,0,0,0,0,0,-1.0633,-1.0627,-1.0571,-1.0567,-1.0563,-1.0518,-1.054,-1.0497,-1.0485,-1.0514,-1.0483,-1.0482,-1.0452,-1.0448,-1.0438,-1.0419,-1.0416,-1.0411,-1.041,-1.0409,-1.0409,0,0,0,0,0,0,0,-1.0636,-1.063,-1.0575,-1.057,-1.0565,-1.0553,-1.0546,-1.0531,-1.0488,-1.0511,-1.0507,-1.05,-1.045,-1.044,-1.0436,-1.0415,-1.0411,-1.0409,-1.0408,-1.0408,-1.0399,-1.04,0,0,0,0,0,0,-1.0644,-1.0633,-1.0577,-1.0573,-1.0596,-1.0552,-1.0544,-1.0533,-1.0488,-1.0481,-1.0501,-1.0498,-1.0443,-1.0438,-1.0434,-1.0438,-1.0409,-1.0407,-1.0406,-1.0399,-1.04,-1.04,0,0,0,0,0,0,-1.0646,-1.064,-1.0579,-1.0602,-1.0593,-1.0552,-1.054,-1.0532,-1.0522,-1.0481,-1.0473,-1.0499,-1.0443,-1.0436,-1.0426,-1.0435,-1.0407,-1.0405,-1.0398,-1.0399,-1.04,-1.0446,0,0,0,0,0,0,-1.0648,-1.0641,-1.0642,-1.0602,-1.0592,-1.0572,-1.054,-1.0532,-1.0519,-1.0515,-1.0476,-1.0469,-1.0441,-1.0429,-1.0424,-1.0432,-1.0404,-1.0396,-1.0398,-1.04,-1.0443,-1.0449,-1.0453,0,0,0,0,0,-1.0651,-1.0657,-1.0642,-1.0636,-1.0593,-1.0572,-1.0566,-1.0534,-1.052,-1.0521,-1.0495,-1.0471,-1.0435,-1.0428,-1.0422,-1.043,-1.0396,-1.0398,-1.04,-1.0441,-1.0448,-1.0453,0,0,0,0,0,0,-1.0698,-1.0651,-1.0634,-1.0627,-1.0604,-1.0564,-1.0564,-1.0542,-1.0522,-1.0519,-1.048,-1.0472,-1.0466,-1.0447,-1.044,-1.0434,-1.0412,-1.0413,-1.0446,-1.0452,-1.0457,-1.0461,-1.0402,0,0,0,0,0,-1.0708,-1.0695,-1.0655,-1.0652,-1.0642,-1.0605,-1.0595,-1.0572,-1.0547,-1.0537,-1.051,-1.0487,-1.047,-1.046,-1.0443,-1.0441,-1.0433,-1.0444,-1.0449,-1.0453,-1.0454,-1.0453,-1.0457,-1.0407,-1.0407,-1.0407,0,0,-1.0727,-1.07,-1.0694,-1.0661,-1.0641,-1.0629,-1.0597,-1.0585,-1.0576,-1.0535,-1.0523,-1.0503,-1.0475,-1.0469,-1.0465,-1.0453,-1.0466,-1.0455,-1.0459,-1.0457,-1.0455,-1.046,-1.0464,-1.0408,-1.0408,-1.0408,0,0,-1.0756,-1.0734,-1.073,-1.0711,-1.0681,-1.0657,-1.0656,-1.062,-1.0605,-1.0593,-1.0562,-1.0551,-1.0523,-1.0504,-1.0491,-1.0516,-1.0493,-1.0512,-1.0537,-1.0536,-1.054,-1.0543,-1.0552,-1.0556,-1.0513,-1.0513,-1.0513,0,-1.0784,-1.0764,-1.0731,-1.0722,-1.0708,-1.0672,-1.0668,-1.0651,-1.0617,-1.0609,-1.0596,-1.0562,-1.054,-1.053,-1.0536,-1.0527,-1.0525,-1.0515,-1.0542,-1.0545,-1.0548,-1.0556,-1.056,-1.0516,-1.0516,-1.0515,-1.0515,0,-1.08,-1.0787,-1.0788,-1.0756,-1.0744,-1.0737,-1.0703,-1.0695,-1.0674,-1.0652,-1.0641,-1.0614,-1.0591,-1.0587,-1.0566,-1.0574,-1.0568,-1.055,-1.0527,-1.0556,-1.0563,-1.0566,-1.0519,-1.0518,-1.0518,-1.0517,0,0,-1.0854,-1.0807,-1.0807,-1.0793,-1.0758,-1.0748,-1.0741,-1.0719,-1.0712,-1.0691,-1.0684,-1.0662,-1.0646,-1.0631,-1.0608,-1.0608,-1.063,-1.0589,-1.0588,-1.0598,-1.0638,-1.0651,-1.0656,-1.0615,-1.0616,-1.0616,-1.064,0,-1.0877,-1.0861,-1.0833,-1.0826,-1.0814,-1.0781,-1.0775,-1.0753,-1.0733,-1.072,-1.0698,-1.0684,-1.0663,-1.0654,-1.0652,-1.0628,-1.0637,-1.0626,-1.0608,-1.0608,-1.0616,-1.0659,-1.0673,-1.0697,-1.0643,-1.0643,-1.0644,0,-1.0901,-1.0883,-1.0875,-1.0843,-1.0837,-1.0832,-1.081,-1.0799,-1.0774,-1.076,-1.0745,-1.072,-1.0712,-1.0692,-1.068,-1.0673,-1.0665,-1.0652,-1.0652,-1.0648,-1.0627,-1.0656,-1.0703,-1.0707,-1.0648,-1.0647,-1.0647,0,-1.0942,-1.0915,-1.0907,-1.0896,-1.0858,-1.0856,-1.084,-1.0815,-1.0804,-1.0785,-1.0778,-1.0759,-1.0748,-1.0735,-1.0706,-1.0695,-1.0698,-1.0675,-1.0685,-1.0686,-1.0686,-1.0686,-1.0732,-1.0682,-1.0682,-1.0682,-1.0682,0,-1.097,-1.0966,-1.0925,-1.092,-1.0916,-1.0884,-1.0881,-1.0862,-1.084,-1.0832,-1.0802,-1.0795,-1.0758,-1.0747,-1.0725,-1.0719,-1.0714,-1.0703,-1.0697,-1.0705,-1.0706,-1.0698,-1.0695,-1.0683,-1.0683,-1.0683,-1.0683,0,-1.1013,-1.0985,-1.0974,-1.094,-1.0932,-1.093,-1.0901,-1.0896,-1.0875,-1.0865,-1.086,-1.0827,-1.0813,-1.0784,-1.0761,-1.0747,-1.0745,-1.0735,-1.0753,-1.075,-1.0761,-1.076,-1.0803,-1.0807,-1.0755,-1.0756,-1.0756,0,-1.1032,-1.1029,-1.0995,-1.0988,-1.0973,-1.0961,-1.095,-1.0919,-1.091,-1.0883,-1.0881,-1.0865,-1.0849,-1.0828,-1.0802,-1.0785,-1.0774,-1.079,-1.0771,-1.078,-1.0774,-1.0775,-1.0774,-1.0794,-1.0795,-1.0796,-1.0796,0,-1.1069,-1.1056,-1.1042,-1.1023,-1.1012,-1.0995,-1.0978,-1.0973,-1.0938,-1.0929,-1.0914,-1.0903,-1.0881,-1.0865,-1.0844,-1.0828,-1.0807,-1.0803,-1.0804,-1.0812,-1.0822,-1.0817,-1.0764,-1.0801,-1.0801,-1.08,-1.08,-1.08,-1.1101,-1.1097,-1.1073,-1.1059,-1.1042,-1.1027,-1.1021,-1.1,-1.0987,-1.0966,-1.0949,-1.0936,-1.0914,-1.0884,-1.087,-1.086,-1.0849,-1.0851,-1.0852,-1.0852,-1.0856,-1.0825,-1.0856,-1.0856,-1.0856,-1.0856,-1.0856,0,-1.1136,-1.112,-1.1107,-1.1084,-1.1073,-1.1054,-1.1034,-1.1026,-1.1015,-1.0996,-1.0983,-1.0967,-1.0952,-1.0926,-1.0909,-1.0906,-1.0896,-1.0903,-1.0902,-1.0899,-1.0866,-1.0867,-1.0911,-1.0911,-1.0911,-1.0911,-1.0911,-1.0911,-1.1153,-1.1146,-1.1131,-1.1116,-1.1099,-1.1087,-1.1077,-1.1063,-1.1048,-1.1031,-1.1019,-1.1003,-1.0981,-1.0963,-1.0949,-1.0942,-1.0937,-1.0947,-1.0937,-1.0906,-1.0901,-1.0896,-1.0896,-1.0946,-1.0946,-1.097,-1.097,-1.097]},{"header":{"parameterUnit":"m.s-1","parameterCategory":1,"la1":30.2991,"la2":30.254,"lo1":-89.0895,"lo2":-89.0444,"dy":0.0017,"dx":0.0017,"nx":28,"ny":28,"refTime":"2025-01-29T09:00:00:Z","depth":0,"parameterNumber":3,"parameterNumberName":"V-component_of_WINDS"},"data":[0,0,0,0,0,0,0,0,0,0,0,0,0,0,0,0,0,0,0,0,0,0,0,0,0,0,0,0,0,0,0,0,0,0,0,0,0,0,0,0,0,0,0,0,0,0,0,0,0,0,0,0,0,0,0,0,0,0,0.9625,0.9625,0,0.9629,0.9629,0.9629,0.9627,0.9627,0.9627,0.9627,0.9631,0.9631,0.9632,0,0,0,0,0,0,0,0,0,0,0,0,0,0.9615,0.9615,0.9625,0.9625,0.9625,0.9629,0.9629,0.9629,0.9627,0.9627,0.9627,0.9627,0.9631,0.9631,0.9632,0,0,0,0,0,0,0,0,0,0,0,0,0,0.9619,0.9615,0.9625,0.9625,0.9625,0.9629,0.9629,0.9629,0.9628,0.9627,0.9627,0.9627,0.9631,0.9631,0.9632,0.9637,0,0,0.9633,0.9633,0,0,0,0,0,0,0,0,0.9619,0.9619,0.9625,0.9625,0.9625,0.9628,0.9627,0.9632,0.9628,0.9626,0.9627,0.9627,0.963,0.9631,0.9632,0.9637,0.9637,0.9633,0.9633,0.9633,0.9633,0,0,0,0,0,0,0,0.9618,0.9619,0.9627,0.9625,0.9625,0.9624,0.9625,0.9628,0.9629,0.9626,0.9626,0.9627,0.963,0.9631,0.9632,0.9637,0.9633,0.9633,0.9633,0.9633,0.9647,0.9647,0,0,0,0,0,0,0.9618,0.9619,0.9626,0.9627,0.9621,0.9624,0.9625,0.9627,0.9629,0.9629,0.9627,0.9627,0.9631,0.9631,0.9632,0.9638,0.9633,0.9633,0.9634,0.9647,0.9647,0.9647,0,0,0,0,0,0,0.9618,0.9619,0.9626,0.9623,0.9624,0.9625,0.9627,0.9627,0.9628,0.963,0.963,0.9628,0.9631,0.9632,0.9636,0.9638,0.9633,0.9634,0.9647,0.9647,0.9647,0.965,0,0,0,0,0,0,0.9618,0.9619,0.9621,0.9623,0.9624,0.963,0.9627,0.9627,0.9629,0.9629,0.9631,0.9631,0.9631,0.9635,0.9636,0.9638,0.9634,0.9646,0.9647,0.9647,0.965,0.965,0.9651,0,0,0,0,0,0.9617,0.9621,0.9621,0.9622,0.9626,0.963,0.9631,0.9631,0.9629,0.9631,0.9632,0.9631,0.9638,0.9636,0.9637,0.9639,0.9646,0.9647,0.9647,0.9649,0.965,0.9651,0,0,0,0,0,0,0.9619,0.9622,0.9621,0.9626,0.9628,0.963,0.9632,0.9632,0.9634,0.9634,0.9633,0.9634,0.9638,0.9639,0.9637,0.9644,0.9642,0.9642,0.9643,0.9644,0.9645,0.9644,0.9634,0,0,0,0,0,0.962,0.9623,0.9625,0.9629,0.963,0.9631,0.9633,0.9633,0.9635,0.9635,0.9636,0.9638,0.9641,0.9643,0.9645,0.965,0.965,0.9652,0.9653,0.9653,0.9654,0.9656,0.9657,0.9649,0.9649,0.9649,0,0,0.9622,0.9624,0.9626,0.963,0.9631,0.9634,0.9632,0.9635,0.9637,0.9636,0.964,0.9641,0.9643,0.9647,0.9649,0.9648,0.9656,0.9654,0.9654,0.9654,0.9657,0.9657,0.9658,0.9649,0.9649,0.9649,0,0,0.9628,0.9629,0.9633,0.9634,0.9637,0.9637,0.9638,0.964,0.9641,0.9645,0.9644,0.9647,0.9651,0.9653,0.9654,0.966,0.9659,0.9661,0.9664,0.9666,0.9667,0.9668,0.967,0.967,0.9661,0.9661,0.9661,0,0.963,0.9634,0.9635,0.9638,0.964,0.9639,0.9642,0.9644,0.9647,0.9648,0.9647,0.9652,0.9654,0.9659,0.966,0.9661,0.9662,0.966,0.9667,0.9668,0.9668,0.967,0.9671,0.9662,0.9662,0.9662,0.9662,0,0.9637,0.964,0.9643,0.9646,0.9648,0.9651,0.9652,0.9654,0.9654,0.9654,0.9658,0.966,0.9663,0.9664,0.9664,0.9669,0.9668,0.9667,0.9664,0.9669,0.9671,0.9671,0.9662,0.9662,0.9662,0.9662,0,0,0.9643,0.9647,0.9647,0.9649,0.9651,0.9654,0.9657,0.966,0.9662,0.9664,0.9667,0.9671,0.967,0.9671,0.9671,0.9673,0.9678,0.9672,0.9672,0.9673,0.9683,0.9684,0.9685,0.9677,0.9678,0.9678,0.9683,0,0.9648,0.9654,0.9655,0.966,0.9663,0.9662,0.9665,0.9667,0.9668,0.9671,0.9672,0.9674,0.9673,0.9674,0.9676,0.9677,0.968,0.9677,0.968,0.968,0.9679,0.9686,0.9686,0.9691,0.9684,0.9684,0.9684,0,0.9655,0.9658,0.9663,0.9665,0.9667,0.9669,0.9672,0.9674,0.9677,0.9677,0.9679,0.9679,0.9682,0.968,0.9684,0.9682,0.9684,0.9684,0.9684,0.9684,0.9682,0.9685,0.9693,0.9693,0.9685,0.9685,0.9685,0,0.9659,0.9663,0.9667,0.9669,0.9672,0.9673,0.9675,0.9677,0.9678,0.9681,0.9682,0.9685,0.9686,0.9688,0.9689,0.9687,0.9693,0.9691,0.9693,0.9693,0.9694,0.9694,0.9702,0.9696,0.9696,0.9696,0.9696,0,0.9664,0.9667,0.9669,0.9671,0.9675,0.9676,0.968,0.9681,0.9683,0.9685,0.9685,0.9687,0.9688,0.9691,0.9691,0.9695,0.9695,0.9696,0.9696,0.9696,0.9695,0.9696,0.9696,0.9696,0.9696,0.9696,0.9696,0,0.9668,0.967,0.9674,0.9677,0.9677,0.968,0.9682,0.9684,0.9685,0.9688,0.9689,0.9691,0.9694,0.9695,0.9698,0.9698,0.9702,0.9702,0.9702,0.9702,0.9704,0.9703,0.9712,0.9713,0.9707,0.9707,0.9707,0,0.9672,0.9674,0.9677,0.9679,0.968,0.9683,0.9685,0.9686,0.9688,0.9691,0.9692,0.9695,0.9698,0.9702,0.9704,0.9706,0.9706,0.9709,0.9707,0.9706,0.9706,0.9706,0.9706,0.9709,0.9709,0.9709,0.9709,0,0.9677,0.9678,0.968,0.9683,0.9686,0.9688,0.969,0.9692,0.9693,0.9695,0.9698,0.97,0.9704,0.9706,0.9709,0.971,0.971,0.971,0.9711,0.971,0.971,0.971,0.9702,0.971,0.971,0.971,0.971,0.971,0.9681,0.9683,0.9686,0.9689,0.969,0.9693,0.9695,0.9696,0.9699,0.9702,0.9702,0.9706,0.9708,0.9712,0.9713,0.9715,0.9715,0.9716,0.9716,0.9716,0.9716,0.971,0.9716,0.9716,0.9716,0.9716,0.9716,0,0.9686,0.9688,0.9691,0.9694,0.9696,0.9696,0.9698,0.97,0.9703,0.9705,0.9708,0.9711,0.9714,0.9716,0.9719,0.972,0.972,0.9721,0.9721,0.9721,0.9717,0.9716,0.9721,0.9721,0.9721,0.9721,0.9721,0.9721,0.9689,0.9693,0.9694,0.9698,0.97,0.9703,0.9705,0.9707,0.9708,0.9712,0.9715,0.9716,0.9718,0.9721,0.9724,0.9724,0.9725,0.9726,0.9726,0.9722,0.9721,0.9721,0.972,0.9726,0.9726,0.973,0.973,0.973]}]]